This demonstration page uses our WeatherBlox Daily Observations layout. Learn more.

41.55636, -103.73856

Hourly Observations for May 8, 2016

Temp ( °F °C ) Dew Point ( °F °C ) Humidity (%) Winds ( mph kmh ) Pressure ( in mb ) Visibility ( mi km ) Precip ( " mm )
12:53 am 00:53 Clear 47 8.3 43 6.1 86 86 SSE 6 9 29.79 1009 10 16.0934 0 0
1:53 am 01:53 Clear 46 7.8 42 5.6 86 86 S 5 7 29.76 1008 10 16.0934 0 0
2:53 am 02:53 Clear 43 6.1 41 5 93 93 Calm 29.76 1008 10 16.0934 0 0
3:53 am 03:53 Mostly Cloudy 43 6.1 40 4.4 89 89 NNE 3 6 29.77 1008 10 16.0934 0 0
4:53 am 04:53 Cloudy 45 7.2 42 5.6 90 90 E 6 9 29.77 1008 10 16.0934 0 0
5:53 am 05:53 Cloudy 45 7.2 42 5.6 90 90 ESE 6 9 29.76 1008 10 16.0934 0 0
6:53 am 06:53 Cloudy 48 8.9 44 6.7 86 86 ESE 3 6 29.78 1009 10 16.0934 0 0
7:53 am 07:53 Cloudy with Light Rain 49 9.4 43 6.1 80 80 SE 5 7 29.78 1008 10 16.0934 0 0.0254
8:15 am 08:15 Cloudy with Light Rain 49 9.4 44 6.7 83 83 SE 5 7 29.77 1008 10 16.0934 0 0.0254
8:53 am 08:53 Cloudy with Light Rain 50 10 46 7.8 86 86 SE 7 11 29.76 1008 8 12.87472 0.01 0.254
9:53 am 09:53 Partly Cloudy 56 13.3 48 8.9 75 75 ESE 14 22 29.71 1006 10 16.0934 0.01 0.254
10:53 am 10:53 Mostly Cloudy 56 13.3 45 7.2 67 67 ESE 9 15 29.69 1006 10 16.0934 0 0
11:53 am 11:53 Partly Cloudy 59 15 46 7.8 62 62 SE 6 9 29.67 1005 10 16.0934 0 0
12:53 pm 12:53 Mostly Cloudy 62 16.7 46 7.8 56 56 SE 10 17 29.64 1004 10 16.0934 0 0
1:53 pm 13:53 Mostly Cloudy 63 17.2 46 7.8 54 54 SE 9 15 29.62 1003 10 16.0934 0 0
2:53 pm 14:53 Partly Cloudy 64 17.8 44 6.7 48 48 SE 14 22 29.61 1003 10 16.0934 0 0
3:53 pm 15:53 Sunny 64 17.8 44 6.7 48 48 ESE 14 22 29.6 1002 10 16.0934 0 0
4:53 pm 16:53 Sunny 64 17.8 43 6.1 46 46 SE 12 19 29.58 1002 10 16.0934 0 0
5:53 pm 17:53 Sunny 61 16.1 44 6.7 54 54 ESE 10 17 29.58 1002 10 16.0934 0 0
6:39 pm 18:39 Cloudy with Nearby Thunderstorms 51 10.6 41 5 69 69 W 18 30 29.65 1004 10 16.0934 0 0
6:53 pm 18:53 Cloudy with Thunderstorms 48 8.9 43 6.1 83 83 W 16 26 29.64 1004 8 12.87472 0.01 0.254
7:34 pm 19:34 Cloudy with Rain 48 9 45 7 87 87 W 12 19 29.65 1004 4 6.43736 0 0
7:53 pm 19:53 Cloudy with Light Rain 50 10 45 7.2 83 83 NW 14 22 29.61 1003 10 16.0934 0.1 2.54
8:53 pm 20:53 Cloudy with Light Rain 51 10.6 44 6.7 77 77 NW 8 13 29.6 1002 10 16.0934 0 0.0254
9:53 pm 21:53 Cloudy with Light Rain 50 10 46 7.8 86 86 S 10 17 29.6 1002 10 16.0934 0.08 2.032
10:53 pm 22:53 Mostly Cloudy 50 10 44 6.7 80 80 NNE 3 6 29.57 1002 10 16.0934 0.01 0.254
11:53 pm 23:53 Partly Cloudy 49 9.4 45 7.2 86 86 NNE 10 17 29.55 1001 10 16.0934 0 0

Powered by AerisWeather